Вернуться в каталог

STARLINK-31710

АктивенСвязьVLEO
NORAD 59378·PAYLOAD·🇺🇸 United States

Запущен Apr 2, 2024 с Vandenberg Space Force Base

Loading…

Ближайшие Пролёты (ближайшие 24 часа)

TLE

СвежийSource: CelesTrak SupGP

Эпоха: Sep 14, 2026, 22:14 UTC

1 59378C 24062E   26257.92687500  .00013711  00000+0  40516-3 0  2573
2 59378  53.1576  93.5285 0001182  83.1040 105.1093 15.34378627    17

Отслеживайте STARLINK-31710 в реальном времени с AllMySat

Download on the App Store